Location: Feigenhofen
(48.4939°N, 10.7793°E)
Time: 15:30:47
(UTC+00:00)

IDEFIX/ARIANE 42P - Pass Details

Date: 26 May 2022
Orbit: 785 x 802 km, 98.5° (Epoch: 28 June)

Event Time Altitude Azimuth Distance (km) Brightness Sun altitude
Rises 01:37:38 0° 15° (NNE) 3,325 7.3 -13.4°
Reaches altitude 10° 01:39:59 10° 16° (NNE) 2,391 6.3 -13.1°
Maximum altitude 01:45:17 81° 104° (ESE) 819 2.7 -12.6°
Enters shadow 01:49:56 14° 191° (SSW) 2,131 4.3 -12.2°
